| time (UTC) | temp F | wind direction | speed MPH | gust MPH | rain 1hr in | rain 24hr in | rain mn in | humidity % | barometer mb |
| 20260508070015 | 63 | 359 | 0.0 | 0.0 | 0.00 | 0.00 | 0.00 | 63 | 1007.0 |
| 20260508064514 | 64 | 359 | 0.0 | 0.0 | 0.00 | 0.00 | 0.00 | 62 | 1007.0 |
| 20260508063028 | 64 | 237 | 0.0 | 1.0 | 0.00 | 0.00 | 0.00 | 61 | 1007.1 |
| 20260508061516 | 64 | 359 | 0.0 | 0.0 | 0.00 | 0.00 | 0.00 | 61 | 1007.0 |
| 20260508060015 | 64 | 359 | 0.0 | 1.0 | 0.00 | 0.00 | 0.00 | 62 | 1007.0 |
| 20260508054513 | 65 | 216 | 0.0 | 0.0 | 0.00 | 0.00 | 0.00 | 61 | 1007.1 |
| 20260508053012 | 66 | 359 | 0.0 | 0.0 | 0.00 | 0.00 | 0.00 | 57 | 1007.1 |
| 20260508051511 | 67 | 220 | 0.0 | 0.0 | 0.00 | 0.00 | 0.00 | 55 | 1007.0 |
| 20260508050011 | 67 | 220 | 0.0 | 0.0 | 0.00 | 0.00 | 0.00 | 54 | 1006.9 |
| 20260508044511 | 68 | 359 | 0.0 | 0.0 | 0.00 | 0.00 | 0.00 | 54 | 1007.0 |
| 20260508043012 | 69 | 359 | 0.0 | 0.0 | 0.00 | 0.00 | 0.00 | 53 | 1006.8 |
| 20260508041510 | 69 | 225 | 0.0 | 0.0 | 0.00 | 0.00 | 0.00 | 51 | 1006.6 |
| 20260508040010 | 70 | 213 | 0.0 | 2.0 | 0.00 | 0.00 | 0.00 | 50 | 1006.3 |
| 20260508034509 | 70 | 222 | 0.0 | 1.0 | 0.00 | 0.00 | 0.00 | 50 | 1006.2 |
| 20260508033009 | 71 | 247 | 0.0 | 1.0 | 0.00 | 0.00 | 0.00 | 48 | 1006.1 |
| 20260508031509 | 72 | 247 | 0.0 | 1.0 | 0.00 | 0.00 | 0.00 | 47 | 1005.9 |
| 20260508030008 | 73 | 225 | 0.0 | 2.0 | 0.00 | 0.00 | 0.00 | 47 | 1005.6 |
| 20260508024507 | 73 | 246 | 0.0 | 0.0 | 0.00 | 0.00 | 0.00 | 46 | 1005.5 |
| 20260508023008 | 75 | 231 | 0.0 | 1.0 | 0.00 | 0.00 | 0.00 | 44 | 1005.3 |
| 20260508021505 | 76 | 214 | 0.0 | 2.0 | 0.00 | 0.00 | 0.00 | 38 | 1005.2 |
| 20260508020006 | 78 | 207 | 0.0 | 3.0 | 0.00 | 0.00 | 0.00 | 35 | 1005.2 |
| 20260508014503 | 78 | 197 | 0.0 | 2.0 | 0.00 | 0.00 | 0.00 | 34 | 1005.1 |
| 20260508013001 | 79 | 200 | 0.0 | 3.0 | 0.00 | 0.00 | 0.00 | 33 | 1005.1 |
| 20260508011501 | 79 | 187 | 1.0 | 2.0 | 0.00 | 0.00 | 0.00 | 32 | 1005.0 |
| 20260508010002 | 79 | 208 | 1.0 | 4.0 | 0.00 | 0.00 | 0.00 | 31 | 1004.9 |
| 20260508004603 | 80 | 185 | 1.0 | 4.0 | 0.00 | 0.00 | 0.00 | 31 | 1004.7 |
| 20260508003105 | 80 | 203 | 1.0 | 5.0 | 0.00 | 0.00 | 0.00 | 31 | 1004.7 |
| 20260508001558 | 80 | 209 | 1.0 | 3.0 | 0.00 | 0.00 | 0.00 | 29 | 1004.7 |
| 20260508000058 | 81 | 213 | 2.0 | 4.0 | 0.00 | 0.00 | 0.00 | 27 | 1004.8 |
| 20260507234556 | 82 | 177 | 1.0 | 5.0 | 0.00 | 0.00 | 0.00 | 25 | 1004.8 |
| 20260507233055 | 82 | 186 | 1.0 | 5.0 | 0.00 | 0.00 | 0.00 | 23 | 1004.9 |
| 20260507231558 | 83 | 195 | 2.0 | 5.0 | 0.00 | 0.00 | 0.00 | 23 | 1004.8 |
| 20260507230056 | 84 | 210 | 0.0 | 4.0 | 0.00 | 0.00 | 0.00 | 20 | 1004.9 |
| 20260507224557 | 85 | 193 | 0.0 | 5.0 | 0.00 | 0.00 | 0.00 | 20 | 1005.0 |
| 20260507223050 | 87 | 247 | 0.0 | 1.0 | 0.00 | 0.00 | 0.00 | 12 | 1005.3 |
| 20260507221549 | 86 | 316 | 1.0 | 4.0 | 0.00 | 0.00 | 0.00 | 12 | 1005.5 |
| 20260507220046 | 86 | 287 | 0.0 | 2.0 | 0.00 | 0.00 | 0.00 | 12 | 1005.7 |
| 20260507214559 | 86 | 330 | 0.0 | 4.0 | 0.00 | 0.00 | 0.00 | 13 | 1006.1 |
| 20260507213045 | 87 | 326 | 0.0 | 4.0 | 0.00 | 0.00 | 0.00 | 13 | 1006.2 |
| 20260507211540 | 85 | 255 | 0.0 | 2.0 | 0.00 | 0.00 | 0.00 | 13 | 1006.3 |
| 20260507210037 | 86 | 264 | 0.0 | 3.0 | 0.00 | 0.00 | 0.00 | 12 | 1006.6 |
| 20260507204533 | 86 | 56 | 0.0 | 3.0 | 0.00 | 0.00 | 0.00 | 12 | 1006.8 |
| 20260507203038 | 85 | 283 | 0.0 | 5.0 | 0.00 | 0.00 | 0.00 | 14 | 1007.0 |
| 20260507201528 | 84 | 98 | 0.0 | 4.0 | 0.00 | 0.00 | 0.00 | 16 | 1007.1 |
| 20260507200025 | 83 | 249 | 0.0 | 0.0 | 0.00 | 0.00 | 0.00 | 17 | 1007.4 |
| 20260507194520 | 84 | 342 | 0.0 | 1.0 | 0.00 | 0.00 | 0.00 | 16 | 1007.6 |
| 20260507193018 | 84 | 323 | 0.0 | 2.0 | 0.00 | 0.00 | 0.00 | 17 | 1007.7 |
| 20260507191514 | 82 | 359 | 0.0 | 0.0 | 0.00 | 0.00 | 0.00 | 19 | 1007.9 |
| 20260507190011 | 82 | 266 | 0.0 | 2.0 | 0.00 | 0.00 | 0.00 | 20 | 1008.2 |
| 20260507184508 | 81 | 301 | 0.0 | 4.0 | 0.00 | 0.00 | 0.00 | 21 | 1008.4 |
| 20260507183010 | 81 | 272 | 0.0 | 0.0 | 0.00 | 0.00 | 0.00 | 22 | 1008.7 |
| 20260507181502 | 82 | 45 | 0.0 | 1.0 | 0.00 | 0.00 | 0.00 | 23 | 1008.8 |
| 20260507180059 | 81 | 37 | 0.0 | 1.0 | 0.00 | 0.00 | 0.00 | 24 | 1009.0 |
| 20260507174557 | 79 | 111 | 0.0 | 1.0 | 0.00 | 0.00 | 0.00 | 25 | 1009.1 |
| 20260507173051 | 78 | 153 | 0.0 | 0.0 | 0.00 | 0.00 | 0.00 | 26 | 1009.2 |
| 20260507171548 | 77 | 90 | 0.0 | 0.0 | 0.00 | 0.00 | 0.00 | 28 | 1009.4 |
| 20260507170051 | 76 | 93 | 0.0 | 1.0 | 0.00 | 0.00 | 0.00 | 30 | 1009.4 |
| 20260507164555 | 75 | 137 | 0.0 | 1.0 | 0.00 | 0.00 | 0.00 | 32 | 1009.4 |
| 20260507163038 | 74 | 143 | 0.0 | 0.0 | 0.00 | 0.00 | 0.00 | 33 | 1009.6 |
| 20260507161536 | 72 | 145 | 0.0 | 1.0 | 0.00 | 0.00 | 0.00 | 33 | 1009.7 |
| 20260507160033 | 72 | 151 | 0.0 | 0.0 | 0.00 | 0.00 | 0.00 | 34 | 1009.7 |
| 20260507154530 | 71 | 151 | 0.0 | 1.0 | 0.00 | 0.00 | 0.00 | 36 | 1009.9 |
| 20260507153027 | 69 | 187 | 0.0 | 0.0 | 0.00 | 0.00 | 0.00 | 37 | 1010.0 |
| 20260507151523 | 67 | 205 | 0.0 | 0.0 | 0.00 | 0.00 | 0.00 | 40 | 1010.0 |
| 20260507150023 | 65 | 205 | 0.0 | 0.0 | 0.00 | 0.00 | 0.00 | 42 | 1010.0 |
| 20260507144523 | 64 | 205 | 0.0 | 0.0 | 0.00 | 0.00 | 0.00 | 44 | 1010.1 |
| 20260507143013 | 63 | 205 | 0.0 | 0.0 | 0.00 | 0.00 | 0.00 | 45 | 1010.1 |
| 20260507141509 | 61 | 205 | 0.0 | 0.0 | 0.00 | 0.00 | 0.00 | 47 | 1010.1 |
| 20260507140007 | 61 | 206 | 0.0 | 0.0 | 0.00 | 0.00 | 0.00 | 49 | 1009.9 |
| 20260507134507 | 59 | 214 | 0.0 | 0.0 | 0.00 | 0.00 | 0.00 | 51 | 1009.8 |
| 20260507133002 | 59 | 214 | 0.0 | 0.0 | 0.00 | 0.00 | 0.00 | 52 | 1009.8 |
| 20260507131501 | 59 | 359 | 0.0 | 0.0 | 0.00 | 0.00 | 0.00 | 52 | 1009.7 |
| 20260507130110 | 58 | 214 | 0.0 | 0.0 | 0.00 | 0.00 | 0.00 | 54 | 1009.6 |
| 20260507124558 | 58 | 214 | 0.0 | 0.0 | 0.00 | 0.00 | 0.00 | 53 | 1009.5 |
| 20260507123058 | 59 | 213 | 0.0 | 0.0 | 0.00 | 0.00 | 0.00 | 52 | 1009.4 |
| 20260507121611 | 59 | 201 | 0.0 | 0.0 | 0.00 | 0.00 | 0.00 | 53 | 1009.6 |
| 20260507120100 | 59 | 195 | 0.0 | 1.0 | 0.00 | 0.00 | 0.00 | 53 | 1009.7 |
| 20260507114634 | 58 | 209 | 0.0 | 0.0 | 0.00 | 0.00 | 0.00 | 55 | 1009.8 |
| 20260507113051 | 59 | 359 | 0.0 | 0.0 | 0.00 | 0.00 | 0.00 | 53 | 1009.8 |
| 20260507111557 | 59 | 208 | 0.0 | 0.0 | 0.00 | 0.00 | 0.00 | 54 | 1009.8 |
| 20260507110050 | 59 | 359 | 0.0 | 1.0 | 0.00 | 0.00 | 0.00 | 54 | 1009.9 |
| 20260507104548 | 59 | 359 | 0.0 | 0.0 | 0.00 | 0.00 | 0.00 | 54 | 1009.9 |
| 20260507103045 | 59 | 359 | 0.0 | 0.0 | 0.00 | 0.00 | 0.00 | 55 | 1010.0 |
| 20260507101547 | 59 | 189 | 0.0 | 1.0 | 0.00 | 0.00 | 0.00 | 55 | 1010.0 |
| 20260507100043 | 59 | 208 | 0.0 | 1.0 | 0.00 | 0.00 | 0.00 | 57 | 1010.0 |
| 20260507094541 | 59 | 217 | 0.0 | 0.0 | 0.00 | 0.00 | 0.00 | 58 | 1010.1 |
| 20260507093042 | 58 | 216 | 0.0 | 1.0 | 0.00 | 0.00 | 0.00 | 60 | 1010.1 |
| 20260507091543 | 58 | 237 | 0.0 | 0.0 | 0.00 | 0.00 | 0.00 | 62 | 1010.2 |
| 20260507090039 | 57 | 237 | 0.0 | 0.0 | 0.00 | 0.00 | 0.00 | 65 | 1010.3 |
| 20260507084535 | 58 | 237 | 0.0 | 0.0 | 0.00 | 0.00 | 0.00 | 64 | 1010.5 |
| 20260507083034 | 59 | 237 | 0.0 | 0.0 | 0.00 | 0.00 | 0.00 | 64 | 1010.5 |
| 20260507081532 | 58 | 231 | 0.0 | 0.0 | 0.00 | 0.00 | 0.00 | 66 | 1010.5 |
| 20260507080031 | 58 | 230 | 0.0 | 0.0 | 0.00 | 0.00 | 0.00 | 66 | 1010.5 |
| 20260507074529 | 58 | 229 | 0.0 | 0.0 | 0.00 | 0.00 | 0.00 | 67 | 1010.6 |
| 20260507073027 | 59 | 230 | 0.0 | 0.0 | 0.00 | 0.00 | 0.00 | 65 | 1010.6 |
| 20260507071522 | 60 | 230 | 0.0 | 0.0 | 0.00 | 0.00 | 0.00 | 64 | 1010.6 |